User: anonymous   Login
Location: Boitzum
(52.1496°N, 9.6943°E)
Time: 23:32:46
(UTC+00:00)
Language:

Cosmos 1709 Rocket - Orbit

View from above orbital plane
View from above orbital plane
View from above satellite
View from above satellite

Ground track
Ground track

The orbit is defined by the following mean orbital elements,

1 16369U          26065.32142558 +.00000000 +00000-0 +10295-3 0 00007
2 16369  82.9385 139.8707 0034934 246.1704 181.5116 13.77179058    05
Epoch (UTC): 06 March 2026 07:42:51
Eccentricity: 0.0034934
inclination: 82.9385°
perigee height: 948 km
apogee height: 1000 km
right ascension of ascending node: 139.8707°
argument of perigee: 246.1704°
revolutions per day: 13.77179058
mean anomaly at epoch: 181.5116°

The dashed part of the orbit path shows where the satellite is in the earth's shadow,  

DLR